Tracking 23940 objects as of 2-Dec-2021
HD Live streaming from Space Station
objects crossing your sky now

STARLINK-3121

Track STARLINK-3121 now!
10-day predictions
STARLINK-3121 is classified as:


NORAD ID: 49428
Int'l Code: 2021-104W
Perigee: 355.8 km
Apogee: 357.7 km
Inclination: 53.2 °
Period: 91.5 minutes
Semi major axis: 6727 km
RCS: Unknown
Launch date: November 13, 2021
Source: United States (US)
Launch site: AIR FORCE EASTERN TEST RANGE (AFETR)
aabbcc
Your satellite tracking list
Your tracking list is empty




NASA's NSSDC Master Catalog

Two Line Element Set (TLE):
1 49428U 21104W   21336.25001157 -.00042196  00000-0 -29698-3 0  9992
2 49428  53.2189  40.3884 0001413  28.3088 137.8924 15.73258752  4229
Source of the keplerian elements: AFSPC